Volver al catálogo

SCOUT A DEB

ActivoPO
NORAD 2140·DEBRIS·🇺🇸 United States

Lanzado Jan 28, 1966 desde Vandenberg Space Force Base

Loading…

Próximos Pases (próximas 24 horas)

TLE

ActualizadoSource: Space-Track

Época: Sep 14, 2026, 03:24 UTC

1 02140U 66005C   26257.14189182  .00000195  00000-0  22495-3 0  9990
2 02140  89.9635  50.2240 0314109 288.8149  67.9176 13.48459510970440

Sigue SCOUT A DEB en tiempo real con AllMySat

Download on the App Store